GW2055 Weather Reports


time (UTC)temp
F
wind
direction
speed
knots
gust
knots
rain 1hr
in
rain 24hr
in
rain mn
in
humidity
%
barometer
mb
20260507103058 45 0 0.0 0.0 0.00 0.00 0.00 85 1018.7
20260507101606 46 0 0.0 0.0 0.00 0.00 0.00 85 1018.6
20260507100058 46 0 0.0 0.0 0.00 0.00 0.00 85 1018.6
20260507094602 46 0 0.0 0.0 0.00 0.00 0.00 85 1018.5
20260507093057 46 0 0.0 0.0 0.00 0.00 0.00 85 1018.4
20260507091603 46 0 0.0 0.0 0.00 0.00 0.00 85 1018.3
20260507090113 46 0 0.0 0.0 0.00 0.00 0.00 85 1018.4
20260507084557 45 0 0.0 0.9 0.00 0.00 0.00 85 1018.5
20260507083102 45 0 0.0 0.9 0.00 0.00 0.00 85 1018.7
20260507081558 45 82 0.0 0.9 0.00 0.00 0.00 84 1018.9
20260507080059 45 0 0.0 0.0 0.00 0.00 0.00 83 1018.9
20260507074600 45 0 0.0 0.9 0.00 0.00 0.00 83 1019.1
20260507073110 45 0 0.0 0.0 0.00 0.00 0.00 83 1018.9
20260507071601 45 0 0.0 0.0 0.00 0.00 0.00 83 1019.3
20260507070138 45 0 0.0 0.0 0.00 0.00 0.00 82 1019.0
20260507064556 46 0 0.0 0.0 0.00 0.00 0.00 82 1019.2
20260507063101 46 0 0.0 0.0 0.00 0.00 0.00 82 1019.2
20260507061555 46 0 0.0 0.9 0.00 0.00 0.00 82 1019.3
20260507060056 47 0 0.0 0.0 0.00 0.00 0.00 80 1019.2
20260507054615 47 0 0.0 0.0 0.00 0.00 0.00 80 1019.0
20260507053057 47 0 0.0 0.0 0.00 0.00 0.00 78 1019.1
20260507051603 48 0 0.0 0.0 0.00 0.00 0.00 77 1018.9
20260507050057 48 0 0.0 0.0 0.00 0.00 0.00 77 1019.0
20260507044605 48 0 0.0 0.0 0.00 0.00 0.00 76 1019.2
20260507043056 49 0 0.0 0.0 0.00 0.00 0.00 75 1018.9
20260507041557 49 0 0.0 0.0 0.00 0.00 0.00 75 1019.0
20260507040057 50 0 0.0 0.0 0.00 0.00 0.00 73 1019.0
20260507034559 51 0 0.0 0.0 0.00 0.00 0.00 72 1019.2
20260507033057 51 0 0.0 0.0 0.00 0.00 0.00 69 1018.9
20260507031557 52 0 0.0 0.0 0.00 0.00 0.00 70 1018.6
20260507030107 53 0 0.0 0.0 0.00 0.00 0.00 68 1018.5
20260507024612 53 0 0.0 0.0 0.00 0.00 0.00 66 1018.3
20260507023057 54 0 0.0 0.0 0.00 0.00 0.00 61 1018.2
20260507021616 55 0 0.0 0.0 0.00 0.00 0.00 59 1018.1
20260507020106 56 0 0.0 0.0 0.00 0.00 0.00 56 1018.0
20260507014612 57 0 0.0 0.0 0.00 0.00 0.00 53 1017.8
20260507013057 59 0 0.0 0.0 0.00 0.00 0.00 50 1017.7
20260507011604 60 0 0.0 0.9 0.00 0.00 0.00 48 1017.5
20260507010108 60 0 0.0 2.6 0.00 0.00 0.00 46 1017.3
20260507004558 61 355 0.0 2.6 0.00 0.00 0.00 45 1017.2
20260507003056 62 0 0.0 2.6 0.00 0.00 0.00 45 1017.0
20260507001602 62 0 0.0 2.6 0.00 0.00 0.00 43 1017.0
20260507000056 64 340 0.0 3.5 0.00 0.00 0.00 41 1017.0
20260506234559 64 19 0.9 6.1 0.00 0.00 0.00 41 1016.8
20260506233059 65 0 0.9 3.5 0.00 0.00 0.00 42 1016.6
20260506231555 65 5 0.9 4.3 0.00 0.00 0.00 42 1016.5
20260506230103 64 346 0.9 7.8 0.00 0.00 0.00 42 1016.4
20260506224559 67 0 0.9 7.0 0.00 0.00 0.00 40 1016.1
20260506223057 66 0 0.9 7.0 0.00 0.00 0.00 42 1016.0
20260506221600 67 355 0.9 4.3 0.00 0.00 0.00 40 1015.8
20260506220057 66 0 1.7 5.2 0.00 0.00 0.00 42 1016.0
20260506214557 66 0 0.9 5.2 0.00 0.00 0.00 40 1016.3
20260506213056 69 0 0.9 5.2 0.00 0.00 0.00 38 1016.4
20260506211559 69 329 1.7 5.2 0.00 0.00 0.00 40 1016.3
20260506210100 68 289 0.9 4.3 0.00 0.00 0.00 39 1016.5
20260506204559 69 0 0.9 7.0 0.00 0.00 0.00 41 1016.6
20260506203056 69 10 0.9 4.3 0.00 0.00 0.00 42 1016.6
20260506201622 69 30 0.0 4.3 0.00 0.00 0.00 44 1016.8
20260506200058 69 0 0.9 4.3 0.00 0.00 0.00 41 1016.8
20260506194557 66 0 0.9 7.0 0.00 0.00 0.00 45 1017.1
20260506193056 67 67 0.0 5.2 0.00 0.00 0.00 47 1017.5
20260506191601 67 13 0.9 8.7 0.00 0.00 0.00 47 1017.6
20260506190058 65 67 1.7 7.0 0.00 0.00 0.00 43 1017.7
20260506184603 66 14 0.9 8.7 0.00 0.00 0.00 47 1017.8
20260506183059 67 62 0.9 7.0 0.00 0.00 0.00 41 1017.9
20260506181604 66 44 0.9 4.3 0.00 0.00 0.00 49 1018.0
20260506180105 64 0 0.0 7.0 0.00 0.00 0.00 45 1018.2
20260506174610 64 49 1.7 6.1 0.00 0.00 0.00 44 1018.3
20260506173128 64 63 0.9 6.1 0.00 0.00 0.00 44 1018.4
20260506171611 64 0 1.7 6.1 0.00 0.00 0.00 47 1018.7
20260506170110 65 323 0.0 7.8 0.00 0.00 0.00 47 1018.8
20260506164556 64 0 0.9 4.3 0.00 0.00 0.00 47 1018.8
20260506163104 64 201 0.9 4.3 0.00 0.00 0.00 45 1018.9
20260506161603 62 5 0.9 7.0 0.00 0.00 0.00 46 1018.6
20260506160056 63 126 0.9 6.1 0.00 0.00 0.00 45 1018.4
20260506154602 62 269 0.9 6.1 0.00 0.00 0.00 49 1018.2
20260506153058 60 20 0.9 7.0 0.00 0.00 0.00 54 1018.0
20260506151558 59 323 0.9 4.3 0.00 0.00 0.00 52 1017.6
20260506150057 59 54 0.9 7.0 0.00 0.00 0.00 58 1017.7
20260506144600 58 26 0.9 5.2 0.00 0.00 0.00 60 1017.2
20260506143055 57 344 0.9 6.1 0.00 0.00 0.00 63 1017.6
20260506141558 55 0 0.9 6.1 0.00 0.00 0.00 66 1017.7
20260506134558 52 9 1.7 7.0 0.00 0.00 0.00 72 1017.5
20260506133102 51 46 0.9 6.1 0.00 0.00 0.00 75 1017.9
20260506131557 50 65 0.0 5.2 0.00 0.00 0.00 76 1017.5
20260506124559 49 42 0.9 5.2 0.00 0.00 0.00 77 1017.4
20260506123056 49 0 0.0 3.5 0.00 0.00 0.00 78 1017.4
20260506121605 48 0 0.9 4.3 0.00 0.00 0.00 80 1017.2
20260506120110 48 0 0.0 3.5 0.00 0.00 0.00 81 1017.1
20260506114619 48 0 0.0 4.3 0.00 0.00 0.00 83 1017.2
20260506113057 48 0 0.0 2.6 0.00 0.00 0.00 84 1016.9
20260506111557 48 13 0.0 4.3 0.00 0.00 0.00 85 1017.0
20260506110058 48 0 0.0 5.2 0.00 0.00 0.00 85 1017.0
20260506104558 48 347 0.0 3.5 0.00 0.00 0.00 85 1017.0